Year,Month,Day,Hour,Minute,Value (Times are PST for temperature in C)
2017,06,16,00,00,12.50
2017,06,16,00,01,12.40
2017,06,16,00,02,12.40
2017,06,16,00,03,12.40
2017,06,16,00,04,12.30
2017,06,16,00,05,12.30
2017,06,16,00,06,12.40
2017,06,16,00,07,12.40
2017,06,16,00,08,12.40
2017,06,16,00,09,12.40
2017,06,16,00,10,12.40
2017,06,16,00,11,12.40
2017,06,16,00,12,12.40
2017,06,16,00,13,12.40
2017,06,16,00,14,12.40
2017,06,16,00,15,12.40
2017,06,16,00,16,12.40
2017,06,16,00,17,12.50
2017,06,16,00,18,12.50
2017,06,16,00,19,12.50
2017,06,16,00,20,12.50
2017,06,16,00,21,12.50
2017,06,16,00,22,12.40
2017,06,16,00,23,12.40
2017,06,16,00,24,12.40
2017,06,16,00,25,12.40
2017,06,16,00,26,12.40
2017,06,16,00,27,12.40
2017,06,16,00,28,12.40
2017,06,16,00,29,12.50
2017,06,16,00,30,12.40
2017,06,16,00,31,12.40
2017,06,16,00,32,12.40
2017,06,16,00,33,12.50
2017,06,16,00,34,12.60
2017,06,16,00,35,12.60
2017,06,16,00,36,12.60
2017,06,16,00,37,12.60
2017,06,16,00,38,12.60
2017,06,16,00,39,12.60
2017,06,16,00,40,12.60
2017,06,16,00,41,12.50
2017,06,16,00,42,12.50
2017,06,16,00,43,12.50
2017,06,16,00,44,12.40
2017,06,16,00,45,12.40
2017,06,16,00,46,12.40
2017,06,16,00,47,12.40
2017,06,16,00,48,12.40
2017,06,16,00,49,12.40
2017,06,16,00,50,12.40
2017,06,16,00,51,12.40
2017,06,16,00,52,12.40
2017,06,16,00,53,12.40
2017,06,16,00,54,12.40
2017,06,16,00,55,12.50
2017,06,16,00,56,12.50
2017,06,16,00,57,12.60
2017,06,16,00,58,12.60
2017,06,16,00,59,12.70
2017,06,16,01,00,12.70
2017,06,16,01,01,12.80
2017,06,16,01,02,12.80
2017,06,16,01,03,12.80
2017,06,16,01,04,12.80
2017,06,16,01,05,12.80
2017,06,16,01,06,12.80
2017,06,16,01,07,12.80
2017,06,16,01,08,12.80
2017,06,16,01,09,12.90
2017,06,16,01,10,12.90
2017,06,16,01,11,12.90
2017,06,16,01,12,12.90
2017,06,16,01,13,12.90
2017,06,16,01,14,12.90
2017,06,16,01,15,12.90
2017,06,16,01,16,12.90
2017,06,16,01,17,12.90
2017,06,16,01,18,12.90
2017,06,16,01,19,12.80
2017,06,16,01,20,12.80
2017,06,16,01,21,12.90
2017,06,16,01,22,12.90
2017,06,16,01,23,12.90
2017,06,16,01,24,12.90
2017,06,16,01,25,13.00
2017,06,16,01,26,13.00
2017,06,16,01,27,13.10
2017,06,16,01,28,13.10
2017,06,16,01,29,13.20
2017,06,16,01,30,13.20
2017,06,16,01,31,13.20
2017,06,16,01,32,13.20
2017,06,16,01,33,13.30
2017,06,16,01,34,13.30
2017,06,16,01,35,13.30
2017,06,16,01,36,13.30
2017,06,16,01,37,13.30
2017,06,16,01,38,13.40
2017,06,16,01,39,13.50
2017,06,16,01,40,13.50
2017,06,16,01,41,13.60
2017,06,16,01,42,13.60
2017,06,16,01,43,13.70
2017,06,16,01,44,13.80
2017,06,16,01,45,13.80
2017,06,16,01,46,13.80
2017,06,16,01,47,13.80
2017,06,16,01,48,13.80
2017,06,16,01,49,13.80
2017,06,16,01,50,13.70
2017,06,16,01,51,13.70
2017,06,16,01,52,13.70
2017,06,16,01,53,13.70
2017,06,16,01,54,13.70
2017,06,16,01,55,13.60
2017,06,16,01,56,13.60
2017,06,16,01,57,13.50
2017,06,16,01,58,13.40
2017,06,16,01,59,13.40
2017,06,16,02,00,13.30
2017,06,16,02,01,13.30
2017,06,16,02,02,13.20
2017,06,16,02,03,13.10
2017,06,16,02,04,13.00
2017,06,16,02,05,13.00
2017,06,16,02,06,12.90
2017,06,16,02,07,12.80
2017,06,16,02,08,12.80
2017,06,16,02,09,12.70
2017,06,16,02,10,12.60
2017,06,16,02,11,12.60
2017,06,16,02,12,12.60
2017,06,16,02,13,12.50
2017,06,16,02,14,12.50
2017,06,16,02,15,12.50
2017,06,16,02,16,12.50
2017,06,16,02,17,12.50
2017,06,16,02,18,12.50
2017,06,16,02,19,12.60
2017,06,16,02,20,12.60
2017,06,16,02,21,12.60
2017,06,16,02,22,12.70
2017,06,16,02,23,12.70
2017,06,16,02,24,12.80
2017,06,16,02,25,12.80
2017,06,16,02,26,12.80
2017,06,16,02,27,12.90
2017,06,16,02,28,12.90
2017,06,16,02,29,12.90
2017,06,16,02,30,12.90
2017,06,16,02,31,12.90
2017,06,16,02,32,12.90
2017,06,16,02,33,13.00
2017,06,16,02,34,13.00
2017,06,16,02,35,13.00
2017,06,16,02,36,13.00
2017,06,16,02,37,13.00
2017,06,16,02,38,13.10
2017,06,16,02,39,13.10
2017,06,16,02,40,13.10
2017,06,16,02,41,13.10
2017,06,16,02,42,13.10
2017,06,16,02,43,13.20
2017,06,16,02,44,13.20
2017,06,16,02,45,13.20
2017,06,16,02,46,13.20
2017,06,16,02,47,13.20
2017,06,16,02,48,13.20
2017,06,16,02,49,13.20
2017,06,16,02,50,13.30
2017,06,16,02,51,13.30
2017,06,16,02,52,13.30
2017,06,16,02,53,13.40
2017,06,16,02,54,13.40
2017,06,16,02,55,13.50
2017,06,16,02,56,13.60
2017,06,16,02,57,13.60
2017,06,16,02,58,13.70
2017,06,16,02,59,13.70
2017,06,16,03,00,13.70
2017,06,16,03,01,13.70
2017,06,16,03,02,13.70
2017,06,16,03,03,13.70
2017,06,16,03,04,13.70
2017,06,16,03,05,13.70
2017,06,16,03,06,13.70
2017,06,16,03,07,13.70
2017,06,16,03,08,13.70
2017,06,16,03,09,13.60
2017,06,16,03,10,13.60
2017,06,16,03,11,13.60
2017,06,16,03,12,13.60
2017,06,16,03,13,13.50
2017,06,16,03,14,13.50
2017,06,16,03,15,13.40
2017,06,16,03,16,13.40
2017,06,16,03,17,13.40
2017,06,16,03,18,13.30
2017,06,16,03,19,13.30
2017,06,16,03,20,13.30
2017,06,16,03,21,13.20
2017,06,16,03,22,13.20
2017,06,16,03,23,13.10
2017,06,16,03,24,13.10
2017,06,16,03,25,13.10
2017,06,16,03,26,13.00
2017,06,16,03,27,13.00
2017,06,16,03,28,12.90
2017,06,16,03,29,12.90
2017,06,16,03,30,12.80
2017,06,16,03,31,12.70
2017,06,16,03,32,12.60
2017,06,16,03,33,12.60
2017,06,16,03,34,12.50
2017,06,16,03,35,12.40
2017,06,16,03,36,12.40
2017,06,16,03,37,12.30
2017,06,16,03,38,12.30
2017,06,16,03,39,12.30
2017,06,16,03,40,12.20
2017,06,16,03,41,12.10
2017,06,16,03,42,12.10
2017,06,16,03,43,12.00
2017,06,16,03,44,11.90
2017,06,16,03,45,11.80
2017,06,16,03,46,11.70
2017,06,16,03,47,11.60
2017,06,16,03,48,11.60
2017,06,16,03,49,11.50
2017,06,16,03,50,11.50
2017,06,16,03,51,11.40
2017,06,16,03,52,11.40
2017,06,16,03,53,11.40
2017,06,16,03,54,11.30
2017,06,16,03,55,11.30
2017,06,16,03,56,11.30
2017,06,16,03,57,11.20
2017,06,16,03,58,11.20
2017,06,16,03,59,11.20
2017,06,16,04,00,11.20
2017,06,16,04,01,11.30
2017,06,16,04,02,11.30
2017,06,16,04,03,11.30
2017,06,16,04,04,11.40
2017,06,16,04,05,11.40
2017,06,16,04,06,11.40
2017,06,16,04,07,11.50
2017,06,16,04,08,11.50
2017,06,16,04,09,11.50
2017,06,16,04,10,11.50
2017,06,16,04,11,11.50
2017,06,16,04,12,11.40
2017,06,16,04,13,11.40
2017,06,16,04,14,11.40
2017,06,16,04,15,11.40
2017,06,16,04,16,11.30
2017,06,16,04,17,11.30
2017,06,16,04,18,11.30
2017,06,16,04,19,11.30
2017,06,16,04,20,11.30
2017,06,16,04,21,11.20
2017,06,16,04,22,11.20
2017,06,16,04,23,11.20
2017,06,16,04,24,11.20
2017,06,16,04,25,11.20
2017,06,16,04,26,11.10
2017,06,16,04,27,11.10
2017,06,16,04,28,11.20
2017,06,16,04,29,11.10
2017,06,16,04,30,11.10
2017,06,16,04,31,11.10
2017,06,16,04,32,11.10
2017,06,16,04,33,11.00
2017,06,16,04,34,11.00
2017,06,16,04,35,10.90
2017,06,16,04,36,10.90
2017,06,16,04,37,10.80
2017,06,16,04,38,10.80
2017,06,16,04,39,10.70
2017,06,16,04,40,10.70
2017,06,16,04,41,10.60
2017,06,16,04,42,10.60
2017,06,16,04,43,10.50
2017,06,16,04,44,10.40
2017,06,16,04,45,10.40
2017,06,16,04,46,10.40
2017,06,16,04,47,10.30
2017,06,16,04,48,10.30
2017,06,16,04,49,10.30
2017,06,16,04,50,10.30
2017,06,16,04,51,10.20
2017,06,16,04,52,10.30
2017,06,16,04,53,10.30
2017,06,16,04,54,10.30
2017,06,16,04,55,10.30
2017,06,16,04,56,10.30
2017,06,16,04,57,10.30
2017,06,16,04,58,10.30
2017,06,16,04,59,10.40
2017,06,16,05,00,10.40
2017,06,16,05,01,10.40
2017,06,16,05,02,10.50
2017,06,16,05,03,10.50
2017,06,16,05,04,10.50
2017,06,16,05,05,10.50
2017,06,16,05,06,10.50
2017,06,16,05,07,10.50
2017,06,16,05,08,10.50
2017,06,16,05,09,10.50
2017,06,16,05,10,10.40
2017,06,16,05,11,10.40
2017,06,16,05,12,10.40
2017,06,16,05,13,10.40
2017,06,16,05,14,10.40
2017,06,16,05,15,10.30
2017,06,16,05,16,10.30
2017,06,16,05,17,10.30
2017,06,16,05,18,10.30
2017,06,16,05,19,10.30
2017,06,16,05,20,10.30
2017,06,16,05,21,10.30
2017,06,16,05,22,10.30
2017,06,16,05,23,10.30
2017,06,16,05,24,10.30
2017,06,16,05,25,10.30
2017,06,16,05,26,10.30
2017,06,16,05,27,10.30
2017,06,16,05,28,10.30
2017,06,16,05,29,10.30
2017,06,16,05,30,10.30
2017,06,16,05,31,10.30
2017,06,16,05,32,10.30
2017,06,16,05,33,10.30
2017,06,16,05,34,10.30
2017,06,16,05,35,10.30
2017,06,16,05,36,10.30
2017,06,16,05,37,10.30
2017,06,16,05,38,10.30
2017,06,16,05,39,10.30
2017,06,16,05,40,10.30
2017,06,16,05,41,10.30
2017,06,16,05,42,10.30
2017,06,16,05,43,10.30
2017,06,16,05,44,10.30
2017,06,16,05,45,10.30
2017,06,16,05,46,10.30
2017,06,16,05,47,10.30
2017,06,16,05,48,10.20
2017,06,16,05,49,10.20
2017,06,16,05,50,10.10
2017,06,16,05,51,10.10
2017,06,16,05,52,10.10
2017,06,16,05,53,10.10
2017,06,16,05,54,10.10
2017,06,16,05,55,10.10
2017,06,16,05,56,10.10
2017,06,16,05,57,10.10
2017,06,16,05,58,10.10
2017,06,16,05,59,10.10
2017,06,16,06,00,10.10
2017,06,16,06,01,10.10
2017,06,16,06,02,10.10
2017,06,16,06,03,10.10
2017,06,16,06,04,10.10
2017,06,16,06,05,10.10
2017,06,16,06,06,10.20
2017,06,16,06,07,10.20
2017,06,16,06,08,10.20
2017,06,16,06,09,10.20
2017,06,16,06,10,10.30
2017,06,16,06,11,10.30
2017,06,16,06,12,10.30
2017,06,16,06,13,10.30
2017,06,16,06,14,10.30
2017,06,16,06,15,10.30
2017,06,16,06,16,10.30
2017,06,16,06,17,10.30
2017,06,16,06,18,10.30
2017,06,16,06,19,10.40
2017,06,16,06,20,10.40
2017,06,16,06,21,10.40
2017,06,16,06,22,10.40
2017,06,16,06,23,10.40
2017,06,16,06,24,10.30
2017,06,16,06,25,10.30
2017,06,16,06,26,10.40
2017,06,16,06,27,10.40
2017,06,16,06,28,10.40
2017,06,16,06,29,10.40
2017,06,16,06,30,10.40
2017,06,16,06,31,10.40
2017,06,16,06,32,10.50
2017,06,16,06,33,10.50
2017,06,16,06,34,10.60
2017,06,16,06,35,10.60
2017,06,16,06,36,10.60
2017,06,16,06,37,10.70
2017,06,16,06,38,10.80
2017,06,16,06,39,10.80
2017,06,16,06,40,10.90
2017,06,16,06,41,11.00
2017,06,16,06,42,11.10
2017,06,16,06,43,11.20
2017,06,16,06,44,11.20
2017,06,16,06,45,11.30
2017,06,16,06,46,11.30
2017,06,16,06,47,11.40
2017,06,16,06,48,11.50
2017,06,16,06,49,11.60
2017,06,16,06,50,11.70
2017,06,16,06,51,11.80
2017,06,16,06,52,11.90
2017,06,16,06,53,12.00
2017,06,16,06,54,12.20
2017,06,16,06,55,12.30
2017,06,16,06,56,12.50
2017,06,16,06,57,12.60
2017,06,16,06,58,12.60
2017,06,16,06,59,12.70
2017,06,16,07,00,12.80
2017,06,16,07,01,12.90
2017,06,16,07,02,13.00
2017,06,16,07,03,13.10
2017,06,16,07,04,13.20
2017,06,16,07,05,13.20
2017,06,16,07,06,13.30
2017,06,16,07,07,13.30
2017,06,16,07,08,13.40
2017,06,16,07,09,13.50
2017,06,16,07,10,13.60
2017,06,16,07,11,13.70
2017,06,16,07,12,13.80
2017,06,16,07,13,13.90
2017,06,16,07,14,14.00
2017,06,16,07,15,14.00
2017,06,16,07,16,14.10
2017,06,16,07,17,14.20
2017,06,16,07,18,14.30
2017,06,16,07,19,14.30
2017,06,16,07,20,14.40
2017,06,16,07,21,14.50
2017,06,16,07,22,14.60
2017,06,16,07,23,14.70
2017,06,16,07,24,14.90
2017,06,16,07,25,15.00
2017,06,16,07,26,15.00
2017,06,16,07,27,15.10
2017,06,16,07,28,15.20
2017,06,16,07,29,15.40
2017,06,16,07,30,15.50
2017,06,16,07,31,15.60
2017,06,16,07,32,15.70
2017,06,16,07,33,15.80
2017,06,16,07,34,15.80
2017,06,16,07,35,15.90
2017,06,16,07,36,16.00
2017,06,16,07,37,16.10
2017,06,16,07,38,16.20
2017,06,16,07,39,16.30
2017,06,16,07,40,16.50
2017,06,16,07,41,16.70
2017,06,16,07,42,16.80
2017,06,16,07,43,16.90
2017,06,16,07,44,17.10
2017,06,16,07,45,17.30
2017,06,16,07,46,17.50
2017,06,16,07,47,17.70
2017,06,16,07,48,17.70
2017,06,16,07,49,17.60
2017,06,16,07,50,17.50
2017,06,16,07,51,17.50
2017,06,16,07,52,17.40
2017,06,16,07,53,17.30
2017,06,16,07,54,17.20
2017,06,16,07,55,17.20
2017,06,16,07,56,17.20
2017,06,16,07,57,17.10
2017,06,16,07,58,17.20
2017,06,16,07,59,17.20
2017,06,16,08,00,17.20
2017,06,16,08,01,17.00
2017,06,16,08,02,16.70
2017,06,16,08,03,16.30
2017,06,16,08,04,16.00
2017,06,16,08,05,15.70
2017,06,16,08,06,15.50
2017,06,16,08,07,15.40
2017,06,16,08,08,15.30
2017,06,16,08,09,15.30
2017,06,16,08,10,15.30
2017,06,16,08,11,15.30
2017,06,16,08,12,15.30
2017,06,16,08,13,15.30
2017,06,16,08,14,15.30
2017,06,16,08,15,15.30
2017,06,16,08,16,15.30
2017,06,16,08,17,15.30
2017,06,16,08,18,15.20
2017,06,16,08,19,15.00
2017,06,16,08,20,15.00
2017,06,16,08,21,15.00
2017,06,16,08,22,14.90
2017,06,16,08,23,14.90
2017,06,16,08,24,14.90
2017,06,16,08,25,15.00
2017,06,16,08,26,15.00
2017,06,16,08,27,15.00
2017,06,16,08,28,15.00
2017,06,16,08,29,15.00
2017,06,16,08,30,15.00
2017,06,16,08,31,15.00
2017,06,16,08,32,15.00
2017,06,16,08,33,15.00
2017,06,16,08,34,15.00
2017,06,16,08,35,15.00
2017,06,16,08,36,15.00
2017,06,16,08,37,14.90
2017,06,16,08,38,14.80
2017,06,16,08,39,14.80
2017,06,16,08,40,14.80
2017,06,16,08,41,14.80
2017,06,16,08,42,14.80
2017,06,16,08,43,14.80
2017,06,16,08,44,14.80
2017,06,16,08,45,14.90
2017,06,16,08,46,15.00
2017,06,16,08,47,15.00
2017,06,16,08,48,15.00
2017,06,16,08,49,15.00
2017,06,16,08,50,15.00
2017,06,16,08,51,15.00
2017,06,16,08,52,15.00
2017,06,16,08,53,15.10
2017,06,16,08,54,15.10
2017,06,16,08,55,15.10
2017,06,16,08,56,15.20
2017,06,16,08,57,15.30
2017,06,16,08,58,15.30
2017,06,16,08,59,15.40
2017,06,16,09,00,15.40
2017,06,16,09,01,15.50
2017,06,16,09,02,15.60
2017,06,16,09,03,15.60
2017,06,16,09,04,15.60
2017,06,16,09,05,15.70
2017,06,16,09,06,15.70
2017,06,16,09,07,15.70
2017,06,16,09,08,15.80
2017,06,16,09,09,15.80
2017,06,16,09,10,15.80
2017,06,16,09,11,15.80
2017,06,16,09,12,15.90
2017,06,16,09,13,15.90
2017,06,16,09,14,16.00
2017,06,16,09,15,16.20
2017,06,16,09,16,16.30
2017,06,16,09,17,16.30
2017,06,16,09,18,16.40
2017,06,16,09,19,16.40
2017,06,16,09,20,16.50
2017,06,16,09,21,16.60
2017,06,16,09,22,16.60
2017,06,16,09,23,16.60
2017,06,16,09,24,16.50
2017,06,16,09,25,16.50
2017,06,16,09,26,16.40
2017,06,16,09,27,16.50
2017,06,16,09,28,16.50
2017,06,16,09,29,16.60
2017,06,16,09,30,16.60
2017,06,16,09,31,16.50
2017,06,16,09,32,16.50
2017,06,16,09,33,16.60
2017,06,16,09,34,16.60
2017,06,16,09,35,16.70
2017,06,16,09,36,16.80
2017,06,16,09,37,16.80
2017,06,16,09,38,16.80
2017,06,16,09,39,16.80
2017,06,16,09,40,16.80
2017,06,16,09,41,16.90
2017,06,16,09,42,17.00
2017,06,16,09,43,17.00
2017,06,16,09,44,17.10
2017,06,16,09,45,17.20
2017,06,16,09,46,17.20
2017,06,16,09,47,17.30
2017,06,16,09,48,17.40
2017,06,16,09,49,17.50
2017,06,16,09,50,17.50
2017,06,16,09,51,17.50
2017,06,16,09,52,17.40
2017,06,16,09,53,17.40
2017,06,16,09,54,17.40
2017,06,16,09,55,17.40
2017,06,16,09,56,17.30
2017,06,16,09,57,17.30
2017,06,16,09,58,17.20
2017,06,16,09,59,17.20
2017,06,16,10,00,17.20
2017,06,16,10,01,17.10
2017,06,16,10,02,17.10
2017,06,16,10,03,17.10
2017,06,16,10,04,17.10
2017,06,16,10,05,17.20
2017,06,16,10,06,17.30
2017,06,16,10,07,17.30
2017,06,16,10,08,17.30
2017,06,16,10,09,17.40
2017,06,16,10,10,17.40
2017,06,16,10,11,17.40
2017,06,16,10,12,17.50
2017,06,16,10,13,17.60
2017,06,16,10,14,17.70
2017,06,16,10,15,17.80
2017,06,16,10,16,17.80
2017,06,16,10,17,17.80
2017,06,16,10,18,17.80
2017,06,16,10,19,17.90
2017,06,16,10,20,18.00
2017,06,16,10,21,18.00
2017,06,16,10,22,18.10
2017,06,16,10,23,18.10
2017,06,16,10,24,18.10
2017,06,16,10,25,18.10
2017,06,16,10,26,18.20
2017,06,16,10,27,18.20
2017,06,16,10,28,18.20
2017,06,16,10,29,18.20
2017,06,16,10,30,18.20
2017,06,16,10,31,18.20
2017,06,16,10,32,18.20
2017,06,16,10,33,18.30
2017,06,16,10,34,18.30
2017,06,16,10,35,18.40
2017,06,16,10,36,18.50
2017,06,16,10,37,18.50
2017,06,16,10,38,18.60
2017,06,16,10,39,18.60
2017,06,16,10,40,18.60
2017,06,16,10,41,18.60
2017,06,16,10,42,18.60
2017,06,16,10,43,18.60
2017,06,16,10,44,18.60
2017,06,16,10,45,18.60
2017,06,16,10,46,18.50
2017,06,16,10,47,18.40
2017,06,16,10,48,18.50
2017,06,16,10,49,18.60
2017,06,16,10,50,18.60
2017,06,16,10,51,18.70
2017,06,16,10,52,18.80
2017,06,16,10,53,18.80
2017,06,16,10,54,18.80
2017,06,16,10,55,18.70
2017,06,16,10,56,18.50
2017,06,16,10,57,18.30
2017,06,16,10,58,18.20
2017,06,16,10,59,18.10
2017,06,16,11,00,18.10
2017,06,16,11,01,18.10
2017,06,16,11,02,18.10
2017,06,16,11,03,18.10
2017,06,16,11,04,18.10
2017,06,16,11,05,18.20
2017,06,16,11,06,18.30
2017,06,16,11,07,18.50
2017,06,16,11,08,18.60
2017,06,16,11,09,18.70
2017,06,16,11,10,18.70
2017,06,16,11,11,18.70
2017,06,16,11,12,18.60
2017,06,16,11,13,18.60
2017,06,16,11,14,18.60
2017,06,16,11,15,18.50
2017,06,16,11,16,18.40
2017,06,16,11,17,18.30
2017,06,16,11,18,18.20
2017,06,16,11,19,18.10
2017,06,16,11,20,18.10
2017,06,16,11,21,18.10
2017,06,16,11,22,18.10
2017,06,16,11,23,18.10
2017,06,16,11,24,18.10
2017,06,16,11,25,18.00
2017,06,16,11,26,18.00
2017,06,16,11,27,17.90
2017,06,16,11,28,17.80
2017,06,16,11,29,17.80
2017,06,16,11,30,17.70
2017,06,16,11,31,17.70
2017,06,16,11,32,17.70
2017,06,16,11,33,17.70
2017,06,16,11,34,17.60
2017,06,16,11,35,17.60
2017,06,16,11,36,17.50
2017,06,16,11,37,17.50
2017,06,16,11,38,17.40
2017,06,16,11,39,17.40
2017,06,16,11,40,17.40
2017,06,16,11,41,17.40
2017,06,16,11,42,17.40
2017,06,16,11,43,17.40
2017,06,16,11,44,17.40
2017,06,16,11,45,17.40
2017,06,16,11,46,17.40
2017,06,16,11,47,17.30
2017,06,16,11,48,17.20
2017,06,16,11,49,17.20
2017,06,16,11,50,17.10
2017,06,16,11,51,17.10
2017,06,16,11,52,17.10
2017,06,16,11,53,17.00
2017,06,16,11,54,17.00
2017,06,16,11,55,17.00
2017,06,16,11,56,17.00
2017,06,16,11,57,17.00
2017,06,16,11,58,17.00
2017,06,16,11,59,16.90
2017,06,16,12,00,16.90
2017,06,16,12,01,16.70
2017,06,16,12,02,16.50
2017,06,16,12,03,16.40
2017,06,16,12,04,16.40
2017,06,16,12,05,16.30
2017,06,16,12,06,16.30
2017,06,16,12,07,16.30
2017,06,16,12,08,16.30
2017,06,16,12,09,16.30
2017,06,16,12,10,16.30
2017,06,16,12,11,16.30
2017,06,16,12,12,16.40
2017,06,16,12,13,16.50
2017,06,16,12,14,16.60
2017,06,16,12,15,16.60
2017,06,16,12,16,16.70
2017,06,16,12,17,16.70
2017,06,16,12,18,16.60
2017,06,16,12,19,16.60
2017,06,16,12,20,16.60
2017,06,16,12,21,16.60
2017,06,16,12,22,16.50
2017,06,16,12,23,16.50
2017,06,16,12,24,16.50
2017,06,16,12,25,16.60
2017,06,16,12,26,16.60
2017,06,16,12,27,16.70
2017,06,16,12,28,16.70
2017,06,16,12,29,16.80
2017,06,16,12,30,16.80
2017,06,16,12,31,16.90
2017,06,16,12,32,16.90
2017,06,16,12,33,16.80
2017,06,16,12,34,16.80
2017,06,16,12,35,16.80
2017,06,16,12,36,16.80
2017,06,16,12,37,16.80
2017,06,16,12,38,16.80
2017,06,16,12,39,16.80
2017,06,16,12,40,16.80
2017,06,16,12,41,16.80
2017,06,16,12,42,16.90
2017,06,16,12,43,16.90
2017,06,16,12,44,16.90
2017,06,16,12,45,16.90
2017,06,16,12,46,16.90
2017,06,16,12,47,16.90
2017,06,16,12,48,16.90
2017,06,16,12,49,16.90
2017,06,16,12,50,16.90
2017,06,16,12,51,16.90
2017,06,16,12,52,16.90
2017,06,16,12,53,16.90
2017,06,16,12,54,16.90
2017,06,16,12,55,16.90
2017,06,16,12,56,16.90
2017,06,16,12,57,16.80
2017,06,16,12,58,16.80
2017,06,16,12,59,16.80
2017,06,16,13,00,16.80
2017,06,16,13,01,16.80
2017,06,16,13,02,16.90
2017,06,16,13,03,16.90
2017,06,16,13,04,16.90
2017,06,16,13,05,17.00
2017,06,16,13,06,17.00
2017,06,16,13,07,17.10
2017,06,16,13,08,17.10
2017,06,16,13,09,17.10
2017,06,16,13,10,17.20
2017,06,16,13,11,17.20
2017,06,16,13,12,17.20
2017,06,16,13,13,17.20
2017,06,16,13,14,17.20
2017,06,16,13,15,17.20
2017,06,16,13,16,17.20
2017,06,16,13,17,17.20
2017,06,16,13,18,17.20
2017,06,16,13,19,17.30
2017,06,16,13,20,17.30
2017,06,16,13,21,17.40
2017,06,16,13,22,17.50
2017,06,16,13,23,17.50
2017,06,16,13,24,17.60
2017,06,16,13,25,17.70
2017,06,16,13,26,17.80
2017,06,16,13,27,17.80
2017,06,16,13,28,17.80
2017,06,16,13,29,17.80
2017,06,16,13,30,17.80
2017,06,16,13,31,17.80
2017,06,16,13,32,17.90
2017,06,16,13,33,18.00
2017,06,16,13,34,18.00
2017,06,16,13,35,18.00
2017,06,16,13,36,18.00
2017,06,16,13,37,18.00
2017,06,16,13,38,18.10
2017,06,16,13,39,18.10
2017,06,16,13,40,18.10
2017,06,16,13,41,18.10
2017,06,16,13,42,18.10
2017,06,16,13,43,18.00
2017,06,16,13,44,18.00
2017,06,16,13,45,18.00
2017,06,16,13,46,18.00
2017,06,16,13,47,17.90
2017,06,16,13,48,17.80
2017,06,16,13,49,17.80
2017,06,16,13,50,17.80
2017,06,16,13,51,17.80
2017,06,16,13,52,17.80
2017,06,16,13,53,17.90
2017,06,16,13,54,17.90
2017,06,16,13,55,17.90
2017,06,16,13,56,17.90
2017,06,16,13,57,18.00
2017,06,16,13,58,18.00
2017,06,16,13,59,18.10
2017,06,16,14,00,18.10
2017,06,16,14,01,18.10
2017,06,16,14,02,18.20
2017,06,16,14,03,18.20
2017,06,16,14,04,18.20
2017,06,16,14,05,18.30
2017,06,16,14,06,18.40
2017,06,16,14,07,18.60
2017,06,16,14,08,18.70
2017,06,16,14,09,18.80
2017,06,16,14,10,18.90
2017,06,16,14,11,19.00
2017,06,16,14,12,19.20
2017,06,16,14,13,19.20
2017,06,16,14,14,19.00
2017,06,16,14,15,18.80
2017,06,16,14,16,18.70
2017,06,16,14,17,18.50
2017,06,16,14,18,18.40
2017,06,16,14,19,18.30
2017,06,16,14,20,18.30
2017,06,16,14,21,18.20
2017,06,16,14,22,18.20
2017,06,16,14,23,18.30
2017,06,16,14,24,18.40
2017,06,16,14,25,18.50
2017,06,16,14,26,18.70
2017,06,16,14,27,18.90
2017,06,16,14,28,19.00
2017,06,16,14,29,19.00
2017,06,16,14,30,19.00
2017,06,16,14,31,18.90
2017,06,16,14,32,19.00
2017,06,16,14,33,19.00
2017,06,16,14,34,19.00
2017,06,16,14,35,18.90
2017,06,16,14,36,19.00
2017,06,16,14,37,19.00
2017,06,16,14,38,19.10
2017,06,16,14,39,19.30
2017,06,16,14,40,19.30
2017,06,16,14,41,19.30
2017,06,16,14,42,19.30
2017,06,16,14,43,19.40
2017,06,16,14,44,19.50
2017,06,16,14,45,19.60
2017,06,16,14,46,19.60
2017,06,16,14,47,19.60
2017,06,16,14,48,19.60
2017,06,16,14,49,19.60
2017,06,16,14,50,19.50
2017,06,16,14,51,19.50
2017,06,16,14,52,19.40
2017,06,16,14,53,19.40
2017,06,16,14,54,19.30
2017,06,16,14,55,19.20
2017,06,16,14,56,19.10
2017,06,16,14,57,19.10
2017,06,16,14,58,19.00
2017,06,16,14,59,18.90
2017,06,16,15,00,18.90
2017,06,16,15,01,18.80
2017,06,16,15,02,18.80
2017,06,16,15,03,18.80
2017,06,16,15,04,18.80
2017,06,16,15,05,18.70
2017,06,16,15,06,18.60
2017,06,16,15,07,18.60
2017,06,16,15,08,18.50
2017,06,16,15,09,18.40
2017,06,16,15,10,18.40
2017,06,16,15,11,18.30
2017,06,16,15,12,18.30
2017,06,16,15,13,18.30
2017,06,16,15,14,18.30
2017,06,16,15,15,18.20
2017,06,16,15,16,18.20
2017,06,16,15,17,18.20
2017,06,16,15,18,18.30
2017,06,16,15,19,18.30
2017,06,16,15,20,18.30
2017,06,16,15,21,18.30
2017,06,16,15,22,18.40
2017,06,16,15,23,18.40
2017,06,16,15,24,18.50
2017,06,16,15,25,18.60
2017,06,16,15,26,18.60
2017,06,16,15,27,18.60
2017,06,16,15,28,18.60
2017,06,16,15,29,18.60
2017,06,16,15,30,18.60
2017,06,16,15,31,18.60
2017,06,16,15,32,18.60
2017,06,16,15,33,18.70
2017,06,16,15,34,18.60
2017,06,16,15,35,18.70
2017,06,16,15,36,18.70
2017,06,16,15,37,18.80
2017,06,16,15,38,18.90
2017,06,16,15,39,19.00
2017,06,16,15,40,19.10
2017,06,16,15,41,19.20
2017,06,16,15,42,19.40
2017,06,16,15,43,19.40
2017,06,16,15,44,19.50
2017,06,16,15,45,19.60
2017,06,16,15,46,19.60
2017,06,16,15,47,19.60
2017,06,16,15,48,19.60
2017,06,16,15,49,19.70
2017,06,16,15,50,19.60
2017,06,16,15,51,19.50
2017,06,16,15,52,19.30
2017,06,16,15,53,19.20
2017,06,16,15,54,19.10
2017,06,16,15,55,19.00
2017,06,16,15,56,18.90
2017,06,16,15,57,18.80
2017,06,16,15,58,18.80
2017,06,16,15,59,18.80
2017,06,16,16,00,18.90
2017,06,16,16,01,19.10
2017,06,16,16,02,19.20
2017,06,16,16,03,19.30
2017,06,16,16,04,19.20
2017,06,16,16,05,19.20
2017,06,16,16,06,19.20
2017,06,16,16,07,19.20
2017,06,16,16,08,19.10
2017,06,16,16,09,19.00
2017,06,16,16,10,19.00
2017,06,16,16,11,18.90
2017,06,16,16,12,18.80
2017,06,16,16,13,18.80
2017,06,16,16,14,18.80
2017,06,16,16,15,18.80
2017,06,16,16,16,18.70
2017,06,16,16,17,18.70
2017,06,16,16,18,18.70
2017,06,16,16,19,18.70
2017,06,16,16,20,18.70
2017,06,16,16,21,18.70
2017,06,16,16,22,18.70
2017,06,16,16,23,18.70
2017,06,16,16,24,18.70
2017,06,16,16,25,18.80
2017,06,16,16,26,18.90
2017,06,16,16,27,18.90
2017,06,16,16,28,19.00
2017,06,16,16,29,19.00
2017,06,16,16,30,19.00
2017,06,16,16,31,19.00
2017,06,16,16,32,19.10
2017,06,16,16,33,19.00
2017,06,16,16,34,19.00
2017,06,16,16,35,19.10
2017,06,16,16,36,19.00
2017,06,16,16,37,19.00
2017,06,16,16,38,19.10
2017,06,16,16,39,19.10
2017,06,16,16,40,19.20
2017,06,16,16,41,19.20
2017,06,16,16,42,19.20
2017,06,16,16,43,19.20
2017,06,16,16,44,19.30
2017,06,16,16,45,19.30
2017,06,16,16,46,19.40
2017,06,16,16,47,19.40
2017,06,16,16,48,19.30
2017,06,16,16,49,19.30
2017,06,16,16,50,19.30
2017,06,16,16,51,19.20
2017,06,16,16,52,19.20
2017,06,16,16,53,19.20
2017,06,16,16,54,19.30
2017,06,16,16,55,19.30
2017,06,16,16,56,19.40
2017,06,16,16,57,19.40
2017,06,16,16,58,19.50
2017,06,16,16,59,19.60
2017,06,16,17,00,19.70
2017,06,16,17,01,19.70
2017,06,16,17,02,19.70
2017,06,16,17,03,19.80
2017,06,16,17,04,19.80
2017,06,16,17,05,19.70
2017,06,16,17,06,19.60
2017,06,16,17,07,19.60
2017,06,16,17,08,19.50
2017,06,16,17,09,19.40
2017,06,16,17,10,19.40
2017,06,16,17,11,19.40
2017,06,16,17,12,19.40
2017,06,16,17,13,19.40
2017,06,16,17,14,19.30
2017,06,16,17,15,19.30
2017,06,16,17,16,19.20
2017,06,16,17,17,19.20
2017,06,16,17,18,19.20
2017,06,16,17,19,19.20